World > North America > United States > Texas > Spanish Camp  

Spanish Camp, TX Hourly Weather Updates

Feedback E-mail the Weather

Quick Clicks

Spanish Camp, TX Weather Maps

°F °C°F °C
Spanish Camp Weather Map
UTC Time: 6/17/2024, 04:13
Your Time:

Spanish Camp, TX Regional Weather

Expires:202406170500;;152694
ASUS44 KSJT 170410
RWRSJT
WEST CENTRAL TEXAS REGIONAL WEATHER ROUNDUP
NATIONAL WEATHER SERVICE SAN ANGELO TX
1100 PM CDT SUN JUN 16 2024

NOTE: "FAIR" INDICATES FEW OR NO CLOUDS BELOW 12,000 FEET WITH NO
SIGNIFICANT WEATHER AND/OR OBSTRUCTIONS TO VISIBILITY.


TXZ163-177-195>197-199-213-226-237-170500-
SOUTHEAST TEXAS
  
CITY           SKY/WX    TMP DP  RH WIND       PRES   REMARKS
COLLEGE STN    CLEAR     82  72  71 SE7       29.85R TC  28           
CALDWELL       CLEAR     82  73  72 SE12      29.86R TC  28           
CROCKETT       CLEAR     81  77  89 CALM      29.86S TC  27           
BRENHAM        CLEAR     82  74  76 S6          N/A  TC  28           
HUNTSVILLE     CLEAR     82  74  76 S12       29.87R TC  28           
CONROE         CLEAR     80  74  81 SE6       29.88R TC  27           
HOUSTON BUSH   PTCLDY    83  75  77 SE10      29.86R TC  28           
HOUSTON HOBBY  PTCLDY    85  76  74 SE9       29.86R TC  29           
PERLAND        PTCLDY    83  79  88 SE6       29.88R TC  28           
WHARTON        CLEAR     80  76  87 E5        29.86R TC  27           
$$


SKY/WX - Weather  TMP - Temperature  DP - Dew Point  RH - Humidity
WIND - Wind Direction/Speed PRES - Barometric Pressure VSB - Visibility
WCI - Wind Chill Index E13G22 Wind - East Wind 13 mph/Gusts of 22 mph

Trending Headlines

Trending Entertainment Headlines

Spanish Camp Radar Loop

Use the map search tool if you want to place a location marker on the radar map...

Spanish Camp Quick Facts

National Two Day Weather Forecast


E-mail the Spanish Camp Weather Forecast

Voice your opinion or tell us about page issues...